Regional Weather Roundup
Issued by NWS

Home | Current Version | Previous Version | Graphics & Text | Print | Product List | Glossary On
Versions: 1 2 3 4 5 6 7 8 9 10 11 12 13 14 15 16 17 18 19 20 21 22 23 24 25 26 27 28 29 30 31 32 33 34 35 36 37 38 39 40 41 42 43 44 45 46 47 48 49 50
000
ASUS43 KLSX 251507
RWRMO

WEATHER SUMMARY FOR MISSOURI
NATIONAL WEATHER SERVICE SPRINGFIELD MO
900 AM CST THU DEC 25 2014

NOTE: "FAIR" INDICATES FEW OR NO CLOUDS BELOW 12,000 FEET WITH NO
       SIGNIFICANT WEATHER AND/OR OBSTRUCTIONS TO VISIBILITY.
       CURRENT SKY AND/OR WEATHER CONDITIONS ARE NOT AVAILABLE FOR
       CHILLICOTHE AND FARMINGTON.

MOZ001>031-035>038-043-044-053-054-251600-
...NORTHERN AND WESTERN MISSOURI...

CITY           SKY/WX    TMP DP  RH WIND       PRES   REMARKS
KANSAS CTY INT PTSUNNY   37  28  70 S17       29.76F WCI  27
KANSAS C DTWN  SUNNY     38  28  67 S15G22    29.80F WCI  29
LEE`S SUMMIT   SUNNY     37  28  70 S15G26    29.81F WCI  28
ST JOSEPH      PTSUNNY   36  28  73 S15       29.75F WCI  27
CHILLICOTHE      N/A     36  29  75 S9        29.84F WCI  29
KIRKSVILLE     PTSUNNY   33  30  88 S13       29.87R WCI  24

$$
MOZ066>068-077>081-088>096-101>105-251600-
...SOUTHWEST MISSOURI...

CITY           SKY/WX    TMP DP  RH WIND       PRES   REMARKS
SPRINGFIELD    MOSUNNY   35  29  78 S15       29.94R WCI  25
JOPLIN         MOSUNNY   40  28  62 S15G23    29.91R

$$
MOZ032>034-039>042-045>050-055>058-069>072-251600-
...CENTRAL MISSOURI...

CITY           SKY/WX    TMP DP  RH WIND       PRES   REMARKS
COLUMBIA       SUNNY     34  30  85 S14       29.94R WCI  25
JEFFERSON CITY SUNNY     34  30  85 SE6       29.98R WCI  29
ROLLA          SUNNY     35  29  78 S14       29.97R WCI  26
SEDALIA        SUNNY     37  29  72 S13       29.91R WCI  29
WHITEMAN AFB   SUNNY     36  29  77 S15       29.88R WCI  26
WARRENSBURG    SUNNY     36  30  80 S15G21    29.87S WCI  26
OSAGE BEACH    SUNNY     34  28  80 S9        29.96R WCI  26

$$
MOZ051-052-059>065-251600-
...EAST CENTRAL MISSOURI...

CITY           SKY/WX    TMP DP  RH WIND       PRES   REMARKS
ST LOUIS INTL  MOSUNNY   38  30  73 S10       30.03R
SPIRIT OF STL  SUNNY     37  30  75 S8        30.02R
ST CHARLES     SUNNY     37  31  78 S12       30.01R WCI  29

$$
MOZ072>076-082>087-097>100-106>115-251600-
...SOUTH CENTRAL AND SOUTHEAST MISSOURI...

CITY           SKY/WX    TMP DP  RH WIND       PRES   REMARKS
CAPE GIRARDEAU SUNNY     38  33  82 S10       30.13R
POPLAR BLUFF   SUNNY     37  32  82 SW12      30.12R WCI  29
WEST PLAINS    SUNNY     35  29  78 S7        30.02S WCI  29

$$


USA.gov is the U.S. government's official web portal to all federal, state and local government web resources and services.